sat.trackr.live / text

‹ back to catalog

STARLINK-30275

NORAD 57667 · 2023-124E

PAYLOAD ACTIVE UNKNOWN

§ Identity

Operator
Country
US
Launch date
2023-08-22
Launch site
AFWTR
Launch vehicle
Mass (kg)
RCS (m²)

Purposes: comms

External: N2YO · Heavens-Above · Gunter

§ Orbital elements

Epoch: 2026-09-20T14:33:28.792800Z

Period
93.85 min
Inclination
53.1594°
Eccentricity
0.0000720
Mean motion
15.34392384 rev/d
Perigee alt
462.2 km
Apogee alt
463.2 km
Semi-major
6,840.9 km
B*
1.8625e-4
RAAN
18.8925°
Arg perigee
84.6505°
Mean anomaly
275.4580°
Rev number
17,344

§ Raw data

STARLINK-302751 57667U 23124E   26263.60658325  .00005920  00000+0  18625-3 0  99972 57667  53.1594  18.8925 0000720  84.6505 275.4580 15.34392384173442

JSON: /api/v1/satellites/57667 · /tle

For live sub-satellite position, see the globe view (requires WebGL).

§ Visibility from observer

Set your observer location to see the next 7 days of passes ≥ 10°. The values pass through the URL so the page stays shareable.

No JS? Fill the form by hand. The geolocation button needs JavaScript.